Wind_Speed
14 15 15 16 16 17 17 17 17 17 17 18 18 18 19 21 21 20 18 17 17 20 20 18 16 16 17 17 17 17 17 18 20 23 24 24 24 23 21 20 20 18 18 20 22 24 24 25 24 22 22 22 21 21 20 18 16 17 18 17 15 16 17 15 9 8 10 10 12 16 19 19 19 19 18 17 17 18 16 16 17 17 15 16 17
15 15 15 16 17 17 18 18 17 18 19 18 18 19 20 20 20 21 20 20 19 20 20 18 17 17 18 19 19 18 18 19 19 22 24 26 25 23 21 21 22 20 18 20 24 24 25 25 25 24 24 23 22 21 21 19 18 19 19 18 18 18 19 16 11 9 10 11 13 15 19 21 20 19 20 19 18 19 18 17 17 17 16 16 17
15 15 16 17 18 18 18 18 18 19 20 18 18 20 20 20 20 20 21 21 21 22 21 19 18 18 20 21 20 20 20 20 20 20 22 25 26 24 22 22 24 25 23 23 24 23 22 24 27 28 26 26 26 23 20 19 19 19 18 19 21 21 19 15 12 11 11 13 16 17 18 21 20 19 20 19 17 18 19 17 16 17 17 17 17
16 16 17 18 18 19 19 19 19 20 20 19 20 20 21 20 20 20 21 21 21 22 23 21 19 20 23 22 19 20 21 21 22 22 22 24 25 24 24 24 25 26 26 25 25 24 23 23 24 26 26 27 28 24 19 19 21 22 21 22 23 22 19 16 15 15 14 14 16 18 18 20 20 20 20 20 18 18 18 18 16 17 17 17 17
18 17 18 18 19 19 20 20 20 21 21 21 21 21 21 20 21 21 21 22 22 22 23 22 20 20 22 22 20 19 20 22 23 23 25 26 25 24 24 24 24 24 25 26 26 25 24 24 25 26 26 25 25 24 22 20 20 21 21 24 25 23 19 17 17 17 16 15 16 17 17 18 19 20 21 20 19 17 17 18 17 17 17 16 15
18 18 18 19 19 20 21 21 21 21 21 21 21 21 21 21 21 22 21 22 23 23 23 22 22 22 22 22 20 20 20 22 22 22 24 25 24 22 21 21 22 23 24 26 26 24 22 23 25 27 26 24 25 26 24 21 19 19 21 26 26 21 16 14 16 17 16 16 16 16 17 18 18 19 20 21 19 17 17 18 17 17 17 16 14
17 18 18 19 19 20 21 21 21 21 22 22 22 21 21 21 21 22 22 22 23 24 24 24 23 23 23 23 21 20 20 21 21 21 22 23 22 20 18 19 22 23 23 24 24 22 21 22 22 23 23 22 23 24 21 19 19 18 20 23 19 16 15 15 16 17 17 17 17 17 17 17 17 17 19 21 20 18 17 17 17 17 17 17 15
17 18 18 19 20 20 21 21 21 21 22 22 22 22 22 22 22 22 22 23 23 24 25 26 25 24 23 23 22 21 21 22 22 21 22 24 24 21 20 20 23 24 23 23 22 21 24 25 24 24 24 20 19 21 20 19 18 17 17 17 13 9 11 13 14 15 17 17 15 15 16 16 16 17 20 21 20 19 18 17 16 16 16 16 17
17 17 18 19 20 20 20 20 21 21 22 22 22 23 23 23 23 23 23 23 23 24 25 25 26 26 25 23 21 21 22 24 22 21 22 23 23 24 24 22 21 22 22 22 21 20 24 26 25 26 26 23 21 24 24 22 21 17 15 15 15 11 7 8 11 14 14 12 11 13 14 16 18 19 20 20 19 18 18 17 16 15 15 16 16
17 17 18 19 20 20 20 20 21 21 22 22 23 23 24 23 23 24 24 24 24 24 25 25 26 27 26 24 22 22 22 22 22 21 22 23 23 24 23 19 18 20 20 20 19 19 22 24 25 26 25 24 25 26 25 24 23 20 16 16 18 15 11 10 12 12 9 5 9 11 10 11 18 20 19 19 18 18 18 17 16 15 16 15 14
17 18 18 19 20 20 21 21 21 21 22 23 23 23 24 24 24 24 24 25 25 24 24 25 25 26 26 25 24 24 22 21 23 25 24 23 22 23 21 18 21 23 23 22 19 18 21 22 23 23 22 23 26 27 24 22 22 23 20 17 18 17 14 13 12 11 7 3 8 13 9 9 13 18 18 17 18 18 18 16 16 16 16 15 13
17 18 19 19 20 20 20 21 21 22 22 23 23 23 24 25 25 25 25 25 26 25 25 25 25 25 25 26 25 24 24 22 20 22 23 24 23 23 22 21 23 24 23 22 20 18 19 19 19 20 21 24 28 27 26 24 22 23 20 16 16 17 17 15 12 11 11 7 10 16 15 11 12 15 16 18 18 18 17 16 16 16 16 15 13
17 17 18 19 20 20 21 21 21 22 22 23 23 23 23 25 25 25 25 25 25 25 25 25 25 25 26 27 27 25 24 23 22 19 18 21 22 23 24 24 23 22 22 22 21 20 19 17 18 21 22 25 27 26 26 25 23 22 20 17 16 16 16 16 13 12 12 10 10 14 16 16 17 15 13 15 17 17 17 17 16 16 16 15 13
17 17 18 19 19 20 20 21 21 22 23 23 23 23 24 25 25 25 25 25 25 25 25 25 25 25 26 27 27 27 26 25 26 24 20 18 18 20 23 25 23 22 23 24 23 24 23 20 21 23 23 26 26 23 21 22 22 21 20 17 14 13 13 13 12 11 10 10 10 11 12 15 19 16 11 11 12 14 16 16 16 16 13 9 7
17 17 18 18 19 20 20 21 21 22 22 23 23 24 25 25 25 25 25 25 25 24 24 25 25 25 26 27 27 29 28 28 28 27 24 23 20 19 20 22 22 22 23 24 25 25 24 21 21 23 23 24 24 21 17 17 18 19 18 15 11 11 12 12 11 11 11 12 12 10 10 12 17 19 15 12 11 12 13 14 15 14 10 7 9
17 18 18 19 19 20 20 21 21 22 22 22 23 23 24 25 25 25 24 25 25 24 24 25 25 25 26 27 28 30 30 30 30 29 27 25 23 23 21 21 22 24 23 22 22 23 22 20 21 21 20 19 20 20 19 16 15 16 16 13 10 10 12 13 13 12 12 14 14 12 12 13 16 19 18 14 11 12 13 14 14 15 12 10 10
17 18 19 19 20 20 20 21 21 21 22 23 23 23 23 23 24 24 25 25 25 25 24 25 25 25 25 27 28 30 31 30 30 30 28 25 23 23 21 20 22 24 23 19 15 15 16 18 20 19 15 15 17 19 20 18 17 17 16 14 11 8 9 11 12 12 11 12 14 15 15 15 15 17 18 16 12 11 12 13 12 12 11 9 8
17 18 18 19 20 20 20 21 21 21 22 22 23 23 23 23 23 24 24 24 25 25 25 25 25 24 24 26 27 29 31 31 30 30 27 24 21 19 18 19 21 21 18 13 9 12 13 14 18 19 15 14 18 20 19 18 15 15 16 16 12 9 8 10 12 12 12 13 15 16 16 15 15 16 16 15 14 12 11 12 13 13 10 8 9
16 17 17 18 19 20 20 21 21 21 22 22 22 22 22 23 24 23 22 22 23 25 25 25 25 25 24 25 27 29 31 31 31 30 26 22 18 16 14 14 14 13 13 12 10 12 13 13 16 19 18 17 19 21 19 15 11 11 14 15 13 11 12 12 13 14 13 13 13 13 11 10 10 12 12 13 14 12 9 9 11 11 10 9 10
15 16 17 17 18 19 20 21 21 21 22 22 22 22 21 22 23 24 23 22 22 23 24 24 26 26 25 25 26 29 31 32 33 31 25 20 16 12 9 6 7 9 10 11 12 11 12 12 13 16 17 17 18 20 18 14 11 11 12 13 14 13 14 14 14 14 14 14 14 13 13 12 11 11 11 11 11 10 11 11 11 9 6 6 7
14 15 16 17 17 18 19 20 21 21 21 22 22 22 22 22 22 23 23 23 22 23 23 23 25 26 25 26 27 30 33 35 37 35 29 22 15 9 5 2 8 11 12 13 13 12 12 12 12 13 15 17 18 19 18 16 15 14 13 14 17 18 16 16 16 15 15 16 16 14 14 14 14 13 12 11 11 10 10 11 13 14 13 10 7
15 15 15 16 17 17 18 20 20 20 21 22 22 23 23 22 22 22 23 23 23 24 24 23 23 24 25 26 27 29 33 37 39 40 37 31 22 15 12 11 8 11 15 16 15 14 14 13 12 12 13 16 19 19 18 17 17 17 17 18 21 21 19 17 15 14 14 14 14 13 13 13 14 13 13 13 11 10 10 10 10 12 13 14 13
14 15 15 15 16 17 17 18 19 20 21 22 22 22 23 23 23 23 23 22 23 23 24 24 24 23 24 26 27 28 29 33 36 38 39 38 34 28 22 19 15 13 16 20 19 17 16 15 12 10 11 15 19 20 19 18 18 18 19 20 22 22 20 18 15 13 13 13 12 13 13 13 13 13 13 13 12 11 11 11 10 10 11 13 16
14 14 15 15 16 16 16 16 18 19 21 22 21 22 22 23 23 23 23 22 23 23 23 24 23 23 23 24 27 28 29 31 34 36 37 38 39 37 33 29 26 23 23 25 24 20 19 18 15 13 13 17 20 22 22 22 23 24 24 23 22 21 20 19 17 15 15 15 15 16 16 16 16 15 14 14 14 14 14 13 12 12 10 10 12
14 14 15 15 15 16 16 15 15 16 18 21 22 22 22 22 23 24 23 22 22 22 23 23 22 22 22 22 25 28 30 32 34 35 35 36 37 37 35 34 32 31 31 30 27 23 21 21 20 19 18 19 21 24 26 26 26 26 25 24 22 19 18 17 17 17 20 19 18 19 19 18 17 15 14 14 14 14 15 15 14 14 13 13 13
14 14 14 15 15 15 16 15 14 14 15 18 20 21 21 21 21 22 22 23 22 21 21 22 22 21 21 21 22 25 29 32 34 34 33 33 34 34 34 34 33 32 32 31 29 26 24 24 23 23 22 22 23 26 26 25 25 25 24 23 22 21 20 20 20 20 22 21 19 18 17 16 15 15 15 15 14 13 13 13 13 12 13 13 13
14 14 15 15 15 15 16 16 15 15 14 14 15 18 19 19 20 20 20 21 21 21 20 21 21 21 20 20 21 22 25 29 32 33 33 32 32 31 31 32 31 31 30 29 29 28 27 27 27 26 25 25 26 26 26 25 23 23 24 23 23 23 23 23 22 21 20 19 18 17 15 14 14 15 16 17 16 13 12 11 11 10 10 11 12
13 14 15 15 15 15 16 16 16 16 15 12 11 14 16 17 17 17 18 18 18 19 20 20 19 18 18 19 20 20 21 25 27 28 30 31 31 31 31 29 28 27 26 24 23 25 27 27 28 27 27 28 27 27 28 28 27 25 25 25 24 23 22 22 22 21 19 18 18 16 15 15 15 15 16 16 16 15 13 12 11 9 9 10 11
12 14 14 14 15 15 16 16 16 17 16 11 9 10 14 16 15 14 16 19 19 17 17 17 17 16 15 17 18 17 18 20 21 21 23 25 26 27 27 26 25 24 21 17 15 17 21 24 25 26 27 28 27 26 28 30 30 29 27 26 24 22 22 22 22 21 20 19 18 16 16 16 16 15 16 16 16 15 14 13 11 10 9 9 9
12 13 14 14 15 15 16 16 16 17 18 14 8 7 9 12 15 14 15 18 20 18 16 17 17 15 13 14 17 17 16 18 19 20 20 21 22 22 22 21 22 22 21 17 15 16 18 19 21 21 23 24 23 23 24 27 29 29 27 26 24 22 21 21 21 20 19 19 18 17 15 16 16 14 14 14 13 13 13 12 11 10 9 9 8
12 13 13 14 14 15 15 16 16 16 18 18 15 10 6 7 10 13 13 14 17 18 17 15 16 16 14 13 14 16 18 19 20 20 21 21 21 21 21 20 18 18 19 19 19 19 19 19 18 18 19 19 20 20 22 25 26 26 25 24 23 21 20 20 18 17 17 17 18 17 17 17 17 15 14 13 11 10 11 10 9 8 7 7 7
12 13 13 13 13 14 14 15 16 16 17 18 18 17 13 8 7 7 8 9 13 16 16 14 14 14 15 15 15 17 19 20 20 21 21 20 20 20 21 21 18 16 16 16 16 16 16 16 16 17 17 17 17 18 19 21 21 22 22 22 21 20 19 18 16 16 16 16 16 17 16 16 15 14 13 12 10 10 9 9 8 8 8 8 7
10 11 13 13 12 13 14 14 15 16 16 16 17 17 17 16 12 8 4 3 5 9 12 14 14 13 14 15 17 18 19 21 21 22 21 20 18 16 17 19 19 16 15 15 14 14 14 13 13 14 14 15 16 16 16 17 17 18 19 19 19 18 17 16 16 16 17 16 15 15 14 13 12 12 11 11 10 10 9 8 8 8 8 7 6
8 9 11 12 12 13 13 14 15 15 15 15 16 17 17 17 17 15 11 7 5 6 8 10 13 13 13 14 16 17 19 21 22 22 21 20 18 16 15 16 16 16 15 15 13 12 12 12 12 12 13 13 14 15 15 14 15 16 16 16 17 16 15 15 15 15 15 15 14 13 11 10 10 10 10 10 10 9 9 9 8 8 8 7 5
8 8 10 11 12 12 13 13 14 14 14 14 16 16 17 16 16 16 16 14 13 13 11 10 11 11 11 12 14 16 18 19 20 20 19 19 18 17 15 14 14 14 14 14 13 12 12 11 11 11 11 12 13 13 13 13 14 14 15 15 15 14 14 13 13 13 13 13 13 12 11 10 10 10 10 10 9 9 9 9 7 7 6 5 6
8 8 10 12 12 12 12 12 12 13 12 13 14 15 15 16 16 15 16 15 15 16 15 11 9 9 10 12 14 15 16 17 18 18 17 17 17 17 15 14 14 13 13 13 12 11 11 10 10 10 10 11 12 12 12 12 13 13 13 14 13 13 12 12 12 12 12 12 11 11 10 9 9 10 10 10 10 9 9 9 7 6 6 5 5
8 9 11 12 12 12 12 11 12 12 11 12 13 14 14 15 15 16 16 17 16 16 16 15 12 10 10 12 14 15 14 14 16 18 17 16 16 15 14 13 12 12 12 11 11 10 10 10 10 10 10 10 11 11 11 11 11 11 11 10 10 11 12 12 12 11 11 11 11 10 9 9 8 8 8 8 8 9 9 9 8 6 5 3 3
7 7 11 12 11 10 11 11 11 12 12 12 13 13 14 15 16 15 16 17 16 16 16 16 15 14 14 15 16 17 16 14 15 17 17 17 15 14 12 12 12 10 10 10 9 9 9 9 9 10 10 10 10 10 10 10 10 10 9 10 11 11 12 12 11 10 10 9 9 8 8 8 7 8 8 8 8 7 7 6 6 6 5 5 4
4 4 9 12 10 9 10 11 10 11 12 12 12 12 13 13 14 15 15 16 16 16 16 15 14 14 15 16 17 18 18 16 16 17 17 16 14 13 11 11 11 9 9 9 8 8 8 9 9 9 9 9 9 9 9 9 9 9 9 10 10 10 9 9 8 8 7 7 7 6 7 7 7 7 8 8 7 7 7 5 5 5 6 6 4
6 5 8 10 10 9 9 10 10 10 11 11 12 12 12 12 13 14 14 14 15 15 15 15 13 11 12 15 17 17 17 16 15 16 16 15 13 12 10 10 10 9 8 7 7 7 7 7 8 8 8 8 8 8 8 9 8 8 8 7 7 7 7 6 6 6 7 7 7 6 6 7 7 7 7 7 7 6 6 6 6 6 6 6 4
8 8 8 8 9 10 10 9 9 10 10 10 11 11 11 11 12 13 13 13 14 13 14 15 13 9 10 15 17 16 15 15 15 15 15 13 12 11 10 9 9 9 8 7 7 7 7 7 7 7 7 7 7 8 8 8 7 7 7 6 6 6 7 6 6 6 6 6 6 6 6 6 6 6 6 5 4 4 6 8 8 6 5 4 4
8 8 9 9 9 10 10 10 10 9 9 10 11 11 10 10 11 11 12 12 13 13 13 14 13 11 10 14 16 14 12 13 15 14 13 11 11 10 10 9 9 8 8 7 7 7 6 7 7 6 7 7 7 7 7 6 6 6 6 6 6 6 6 6 6 6 6 6 7 6 7 7 7 6 5 4 2 2 4 6 6 4 5 5 3
8 8 9 10 10 10 10 9 9 9 9 10 10 11 11 11 10 10 10 11 12 13 13 13 13 12 12 13 14 13 12 13 14 13 11 10 10 10 9 8 8 8 7 7 6 6 6 7 6 6 6 7 6 6 6 6 6 6 6 5 5 5 5 6 6 6 6 7 6 5 4 5 5 5 5 5 5 5 4 3 3 4 5 5 3
8 8 9 9 9 10 10 9 9 9 8 9 10 10 11 11 10 9 10 10 11 12 12 12 12 12 12 13 13 13 12 12 12 11 8 8 8 9 8 7 6 6 6 6 5 5 5 6 6 6 6 6 5 5 5 5 4 5 5 4 4 4 4 4 5 6 7 7 5 5 4 5 6 5 4 5 7 6 4 3 5 6 6 5 4
8 9 10 10 10 10 10 10 10 9 9 9 10 10 10 11 10 10 10 10 10 11 11 11 10 11 11 12 12 12 12 11 10 9 7 6 6 7 7 5 5 6 6 6 5 5 5 5 5 5 5 5 5 5 4 4 3 4 4 4 4 5 5 3 3 3 4 2 2 2 4 6 5 5 5 4 5 5 6 5 5 5 5 5 5
8 9 9 9 10 10 10 10 10 10 10 11 11 11 11 11 11 11 11 10 9 10 11 10 10 9 10 11 11 11 11 10 9 7 6 5 5 6 6 4 4 5 6 5 5 6 5 4 4 4 4 4 4 4 4 3 3 3 2 2 4 5 5 3 2 2 2 3 7 5 2 4 3 4 4 5 5 4 4 5 4 3 3 4 5
8 9 9 9 9 10 10 9 10 10 10 11 11 11 12 12 11 12 11 10 9 10 11 10 9 8 8 10 11 11 10 9 8 7 6 5 4 4 4 3 3 4 5 4 4 5 5 5 4 4 3 3 2 2 2 2 2 2 1 2 3 4 4 4 3 2 1 3 6 6 5 3 4 4 3 3 3 3 3 4 3 3 2 2 4
8 8 8 8 9 10 10 9 10 10 10 10 11 11 12 12 12 11 11 10 10 10 11 10 9 8 8 10 10 10 10 9 7 7 7 6 4 3 2 1 1 2 4 5 4 4 3 3 3 2 2 2 1 1 1 1 2 2 3 5 5 4 3 3 3 1 0 2 4 5 6 5 5 5 4 3 4 4 2 1 2 2 2 2 3
8 8 8 8 9 10 10 9 10 10 11 11 12 12 12 12 12 11 11 11 10 10 10 11 10 9 8 9 10 10 9 8 6 6 7 6 4 2 1 1 1 1 3 4 3 3 3 3 2 2 2 2 2 2 2 2 2 2 2 3 4 4 4 3 3 2 2 2 2 2 3 3 4 4 4 3 3 6 6 4 2 1 1 1 1
7 7 7 7 8 9 9 9 9 11 11 12 12 12 12 12 11 10 10 10 11 10 10 11 10 8 7 7 9 9 8 7 7 6 6 5 4 3 2 0 1 2 3 3 3 3 4 3 3 2 2 2 1 2 2 1 2 4 4 3 3 4 5 5 4 4 4 3 1 2 2 2 2 2 1 2 2 3 2 1 2 3 3 1 1
7 7 7 7 8 8 8 8 10 11 11 12 12 12 12 12 11 10 10 10 11 11 11 11 10 8 7 7 8 8 7 7 7 6 4 3 3 3 2 1 0 0 1 1 2 2 3 3 2 2 2 1 2 3 1 2 4 5 4 3 3 4 4 4 5 5 6 5 3 1 3 2 1 2 4 5 3 1 2 2 3 6 7 3 2
Wind_Direction
1 359 358 356 353 353 353 352 349 345 338 333 330 326 324 322 319 317 310 298 288 282 278 275 273 271 268 263 256 251 245 237 231 230 231 230 227 227 224 215 210 211 210 208 208 209 211 214 220 223 222 218 217 218 217 216 215 215 216 213 216 224 218 211 214 204 191 198 196 186 185 186 185 189 185 174 183 192 185 187 195 193 193 198 201
0 1 358 355 356 356 355 354 352 348 343 338 335 332 329 326 320 316 312 307 301 294 287 281 276 274 274 273 269 261 252 245 238 229 227 228 228 228 225 217 214 213 210 210 211 210 209 211 215 220 222 220 221 221 215 212 212 213 217 217 219 230 227 213 204 198 183 181 197 197 185 184 189 192 186 176 175 184 186 184 188 190 189 193 202
0 3 0 357 358 357 356 356 353 351 348 343 340 336 331 328 325 318 312 308 305 300 295 289 282 278 273 269 268 266 260 254 246 236 229 227 226 226 225 220 217 213 212 212 211 208 205 207 212 216 219 222 224 222 215 211 209 209 215 217 219 229 231 212 191 196 193 182 193 200 187 183 191 193 189 183 177 183 191 187 185 191 190 189 198
1 3 2 359 359 358 357 356 353 352 350 346 342 339 335 331 328 325 318 311 305 300 298 296 291 283 275 270 268 266 265 262 254 244 238 233 228 225 222 220 220 218 214 212 211 209 208 207 208 211 217 222 220 219 216 211 208 210 214 216 219 225 226 211 192 190 195 194 196 200 193 188 192 195 191 189 184 186 194 193 188 191 193 192 197
0 2 2 359 358 358 357 356 353 351 351 348 343 341 339 335 332 329 324 319 313 306 301 299 295 287 278 275 276 273 270 269 261 249 243 241 235 228 222 219 222 221 217 215 215 213 210 210 209 208 211 217 217 217 217 213 210 212 214 219 222 222 217 209 199 193 195 200 201 200 196 191 192 196 194 190 187 188 194 197 193 192 192 193 198
1 3 3 360 358 358 356 355 352 350 350 348 346 344 341 338 334 331 328 326 322 317 311 305 299 293 288 284 283 279 273 273 267 255 250 248 241 234 226 221 224 224 222 223 222 216 210 211 213 211 209 213 218 218 216 212 211 211 215 221 222 215 209 209 206 201 199 202 203 201 197 192 192 197 197 191 188 192 195 194 194 194 192 192 193
3 3 3 0 359 357 356 354 352 351 350 349 348 346 344 341 338 335 332 329 328 327 324 319 311 303 298 295 292 283 275 271 266 260 256 253 247 242 234 226 227 229 226 224 220 213 209 207 209 210 210 212 216 215 214 215 217 218 222 226 221 204 201 209 210 208 204 201 203 207 201 192 188 194 197 191 187 194 197 193 193 193 190 191 190
4 4 3 2 0 358 356 354 353 352 351 350 350 349 346 344 341 339 336 333 333 333 332 331 327 319 310 304 297 284 275 272 269 262 256 253 250 248 242 233 232 232 230 227 222 217 215 214 213 214 214 213 212 210 213 213 215 224 229 231 228 203 198 214 219 218 212 197 195 209 203 185 182 195 202 196 190 196 199 195 194 192 188 191 196
6 5 5 4 1 359 357 356 354 354 354 353 353 351 349 347 344 342 341 338 337 337 337 338 336 332 326 318 306 288 277 275 275 267 260 256 253 249 245 240 235 232 229 228 223 218 219 219 217 216 214 212 212 214 216 212 212 225 231 224 223 212 197 220 232 235 230 201 185 206 207 186 182 196 206 202 196 198 197 192 194 194 189 191 200
8 8 7 5 2 360 359 358 357 356 356 356 355 353 352 351 348 345 344 342 341 341 341 342 342 339 334 328 319 304 289 280 275 270 263 257 252 249 246 243 238 232 228 225 217 210 217 220 218 217 215 213 214 218 221 217 214 222 226 216 216 213 197 205 220 231 245 223 181 199 222 206 188 194 206 204 198 198 196 193 195 195 192 192 197
10 10 8 6 3 1 1 1 359 358 359 358 357 356 355 354 351 348 347 346 344 344 344 344 344 343 340 335 328 321 315 300 282 274 269 262 255 251 246 240 238 235 232 232 223 212 216 220 219 221 221 220 221 221 219 215 211 215 221 217 214 211 200 199 208 213 220 206 165 183 223 242 204 197 201 196 194 199 199 196 197 199 201 200 198
12 11 10 7 4 4 3 2 1 1 1 360 359 358 357 356 354 351 350 349 347 347 347 346 346 344 344 342 334 330 333 325 301 283 274 268 265 258 248 242 243 239 233 233 228 217 216 216 216 220 222 221 222 218 213 210 209 213 219 219 215 213 210 207 205 205 205 190 169 182 201 221 217 211 204 195 195 199 201 198 198 208 213 209 212
14 12 11 8 6 6 4 4 3 3 3 1 0 359 359 358 357 354 352 350 349 348 348 348 347 346 346 346 341 336 335 329 321 310 290 273 268 264 254 248 245 237 230 232 232 228 226 219 209 212 217 216 213 211 209 207 207 209 212 214 214 215 218 215 209 207 202 186 177 187 191 197 208 214 208 202 199 197 200 199 196 209 217 211 219
18 15 12 9 7 5 4 4 3 2 2 2 1 1 1 359 358 356 354 353 351 351 349 349 349 349 347 345 342 341 338 329 322 320 311 292 277 268 260 252 243 232 229 234 235 234 233 227 215 212 213 212 207 200 199 200 202 205 208 211 212 211 215 217 216 217 210 196 196 199 194 197 204 205 203 207 202 193 197 198 192 203 211 194 185
21 18 13 11 8 5 5 4 2 2 1 1 1 0 0 0 360 358 357 357 355 353 352 351 350 350 350 348 344 342 342 337 329 321 313 305 294 282 273 262 250 238 231 229 230 230 228 225 225 220 210 208 204 191 182 189 197 201 202 201 199 203 208 211 215 216 209 207 210 202 191 194 199 204 214 225 214 195 191 188 180 181 178 142 125
21 19 16 14 11 8 6 5 4 3 2 1 1 360 359 359 360 358 357 358 359 358 358 357 355 352 353 353 349 345 343 342 338 328 317 309 300 290 283 271 256 243 234 231 231 230 223 222 228 221 203 199 204 194 181 182 191 195 190 178 171 182 196 202 209 209 201 204 211 202 191 193 194 198 203 204 199 191 184 183 182 179 175 158 139
19 17 16 15 13 12 9 7 6 4 3 3 2 1 0 358 358 358 358 359 1 1 2 2 1 358 357 357 355 351 349 348 344 335 326 318 308 295 286 273 258 243 234 235 230 211 204 212 218 213 197 188 194 191 180 178 188 193 180 160 147 155 182 195 201 202 196 198 205 202 197 197 190 186 187 186 187 186 180 176 175 175 173 167 158
17 15 14 14 14 13 12 11 9 6 5 4 3 2 2 1 359 358 359 0 2 2 2 3 4 3 1 1 359 356 355 355 351 343 334 325 317 306 291 272 255 236 216 207 186 162 167 187 201 204 200 187 181 178 173 174 186 190 174 156 141 136 158 175 177 177 176 178 184 190 191 189 182 179 183 187 186 180 180 183 183 183 185 179 166
16 14 13 12 12 13 13 12 11 9 8 7 5 4 3 2 3 1 0 360 0 1 2 3 4 6 4 3 3 2 1 2 360 354 343 331 323 315 299 271 242 212 180 161 143 143 157 170 183 193 196 190 180 176 174 175 178 174 162 153 146 140 144 152 153 154 156 154 155 160 160 158 163 166 169 174 170 154 142 160 179 191 199 183 157
16 14 12 12 12 13 13 11 10 10 9 8 8 8 5 3 3 4 4 3 1 1 2 2 4 7 6 7 9 9 8 9 9 7 359 346 337 324 307 265 192 161 142 135 126 126 141 155 167 180 186 185 179 173 172 167 159 160 158 151 145 140 138 139 139 137 133 127 123 124 119 112 117 128 137 143 139 122 109 108 107 101 104 119 123
14 14 14 12 12 13 13 11 10 10 9 9 9 10 10 6 4 4 4 6 7 5 4 4 5 6 7 9 12 15 17 19 20 20 18 11 3 1 15 100 159 153 130 118 114 109 110 124 142 162 176 177 169 163 160 155 151 155 155 147 142 137 132 131 130 126 120 116 116 112 106 105 102 99 101 102 99 97 96 94 92 89 81 69 73
12 15 15 12 12 14 14 13 12 11 10 9 9 10 12 10 7 5 4 6 10 10 9 7 6 6 8 9 12 14 19 23 25 27 30 31 31 37 54 73 113 142 128 109 97 94 95 102 119 140 155 157 153 150 149 147 146 145 142 141 139 133 126 122 122 120 116 114 114 108 103 102 96 88 85 84 87 93 89 84 92 99 89 75 74
13 14 14 12 13 15 14 14 15 14 11 11 10 10 11 12 10 9 7 6 9 11 12 11 9 7 7 10 13 14 17 22 26 29 32 37 41 45 51 61 70 90 104 100 92 88 89 93 105 121 128 129 132 136 137 136 134 131 133 137 137 132 125 118 114 113 112 110 107 102 99 96 89 84 82 79 80 86 82 78 85 92 91 87 86
16 15 14 13 13 15 16 15 16 16 15 15 15 13 12 13 13 12 10 8 8 11 13 12 11 10 9 10 14 16 18 23 27 30 32 36 41 44 48 55 59 60 69 82 87 88 89 92 98 106 110 112 116 120 121 121 121 120 122 126 127 125 120 115 112 107 102 97 89 83 85 89 87 84 84 84 88 91 88 84 85 87 92 99 97
20 18 15 15 13 14 16 15 15 18 17 16 17 16 14 15 14 13 13 12 10 10 13 14 14 14 13 11 11 14 18 23 25 27 31 35 38 42 45 51 57 58 60 66 76 84 91 96 101 104 106 109 112 113 111 113 116 117 118 120 120 118 115 114 113 104 94 89 84 80 81 86 88 88 90 89 88 93 93 89 85 84 85 88 88
23 22 18 17 15 15 17 15 14 18 17 15 17 17 16 17 17 14 14 14 13 13 13 14 15 17 18 14 11 11 16 21 23 23 26 29 33 37 40 44 50 57 60 63 68 75 81 87 92 96 100 104 108 107 105 106 109 110 110 111 110 108 108 107 105 99 94 91 90 87 86 89 94 99 102 96 88 89 95 96 95 94 91 88 87
19 24 22 18 14 15 18 16 13 15 19 21 21 20 18 19 20 20 17 15 15 16 17 15 14 17 19 16 12 13 16 20 22 22 23 26 27 29 33 35 39 44 50 55 62 68 72 76 80 85 90 95 99 103 104 102 98 95 94 95 94 96 101 103 102 99 97 96 95 93 93 93 95 99 100 95 89 90 98 105 108 112 112 107 103
17 24 26 20 13 14 18 16 12 12 18 31 36 29 25 24 24 25 25 22 19 18 18 17 14 15 19 17 14 14 15 18 21 21 21 24 26 27 29 29 29 31 32 36 49 61 68 73 74 76 79 80 80 85 91 94 91 86 84 84 86 90 97 101 100 99 99 99 99 99 99 97 94 96 96 92 89 89 95 100 101 104 114 118 115
19 23 28 22 14 14 17 16 13 11 16 33 59 56 44 37 34 34 32 31 32 30 27 24 19 18 20 18 15 15 11 11 14 15 15 18 21 23 25 26 26 27 25 23 30 43 54 61 62 62 65 67 64 66 74 81 85 84 83 82 82 82 84 86 86 88 93 96 95 92 93 92 88 87 88 87 86 88 87 86 84 85 92 101 106
21 21 28 25 16 14 17 16 13 12 12 18 41 75 69 53 45 42 37 34 35 36 37 37 35 34 32 24 20 23 20 13 13 13 13 15 16 16 17 19 22 25 29 36 44 45 46 51 54 55 59 61 59 58 64 73 78 79 81 82 82 82 82 82 83 86 92 94 92 87 86 84 80 76 76 75 76 78 76 74 75 80 86 91 95
22 17 22 25 18 13 16 15 13 12 11 11 12 22 53 71 58 45 36 36 39 37 35 38 40 43 46 43 34 32 30 25 21 18 16 16 16 16 16 16 16 20 26 35 45 47 44 46 50 54 61 64 61 61 66 73 77 80 84 86 86 87 88 87 86 88 88 88 87 85 83 80 78 77 74 71 68 67 67 71 76 78 80 84 89
29 18 14 19 19 14 13 12 11 10 11 10 8 7 8 22 47 49 37 34 38 36 32 32 36 40 45 47 41 34 29 24 21 19 16 15 18 21 21 20 19 20 23 28 36 39 40 42 45 49 56 62 63 66 71 75 79 85 89 89 89 91 91 91 93 93 89 86 84 82 82 82 81 80 77 75 74 70 68 71 73 70 70 72 73
29 21 10 7 11 14 10 5 5 7 7 6 7 6 4 4 8 19 28 24 32 36 31 28 30 35 41 41 37 33 30 26 23 21 19 19 20 21 22 24 23 22 25 30 34 36 37 39 42 45 50 57 63 66 71 74 79 83 87 88 89 91 93 97 101 97 91 88 85 82 81 81 81 81 80 78 75 73 72 73 73 71 74 77 68
33 42 29 10 2 9 10 1 359 2 2 0 3 5 6 4 2 3 7 2 359 22 35 32 30 33 39 40 36 32 29 26 25 25 25 26 24 22 24 28 26 24 28 32 34 35 36 39 44 47 50 56 62 65 67 73 78 82 85 87 88 90 92 96 96 92 89 89 86 82 82 84 83 83 83 81 79 76 72 72 74 78 81 84 80
33 45 33 11 358 3 6 358 357 360 358 358 1 2 3 5 3 0 3 3 357 358 10 27 33 33 37 39 35 31 28 25 22 22 23 25 25 24 24 27 27 25 28 32 33 35 39 42 48 52 54 57 60 63 66 72 77 80 84 87 87 88 89 90 88 87 89 89 86 83 84 87 88 88 85 84 83 80 75 72 73 77 80 82 87
22 23 10 360 355 355 356 358 2 358 349 351 359 359 357 1 2 359 359 2 359 355 358 12 28 34 35 34 24 17 19 21 17 14 14 17 21 22 20 21 24 27 28 30 33 37 43 49 53 57 61 63 66 68 69 71 74 78 82 85 85 85 87 89 89 88 87 86 84 83 83 85 91 93 91 89 86 83 82 79 73 72 79 81 79
13 15 4 355 348 344 347 357 1 352 341 345 356 357 354 357 0 359 359 4 4 357 355 3 13 17 19 17 7 358 0 10 14 12 10 10 14 19 17 15 21 27 30 33 37 41 47 53 57 60 64 68 69 72 74 75 77 79 80 83 88 93 95 95 93 92 91 89 86 83 82 84 88 92 95 94 91 89 88 87 85 80 72 67 74
3 12 10 2 348 339 346 354 353 348 347 351 358 358 354 354 358 359 359 4 6 0 356 1 7 8 7 6 0 353 350 355 3 9 10 8 8 12 14 14 19 28 33 37 42 48 52 57 60 62 66 69 71 74 77 78 78 80 82 88 97 101 101 98 95 95 96 97 95 92 93 92 90 90 91 88 86 88 87 87 99 99 75 58 73
351 9 14 6 353 342 346 348 346 348 351 352 354 356 354 354 357 358 359 2 3 1 360 3 9 11 9 6 0 353 349 352 0 7 10 8 4 4 11 14 17 25 34 38 45 54 59 62 65 68 70 72 73 75 78 81 82 86 91 93 95 98 98 98 98 99 99 99 97 91 91 94 92 91 93 92 90 92 89 78 80 93 92 89 79
349 353 2 358 348 342 343 344 348 352 351 346 346 349 352 355 355 353 356 0 0 359 360 3 9 18 18 11 3 354 351 358 5 8 10 8 0 359 10 15 15 22 34 40 47 59 64 67 72 75 76 78 80 82 86 89 91 93 95 95 95 96 97 96 97 98 96 96 97 95 94 96 95 94 98 102 103 112 122 117 107 106 113 120 107
347 346 350 346 340 338 340 343 348 350 346 343 343 345 349 353 351 348 351 357 358 357 357 359 6 16 15 10 7 2 359 6 10 8 9 8 359 358 11 18 15 21 34 42 50 61 70 73 77 79 81 84 88 92 93 95 95 93 92 90 89 90 92 92 94 96 95 92 90 89 88 92 96 97 101 111 131 163 164 146 132 120 109 107 108
341 342 346 344 339 338 340 342 342 343 346 350 348 343 342 343 343 344 348 350 351 352 352 353 358 1 358 2 8 8 5 8 9 8 8 8 1 4 17 22 17 20 30 40 50 59 68 75 80 85 89 93 95 97 98 97 98 97 96 93 93 95 96 94 91 91 92 89 86 87 95 102 103 94 87 89 94 104 115 122 128 120 98 90 97
338 337 339 341 339 336 336 338 340 343 349 350 344 336 332 331 333 339 345 345 346 349 349 348 349 350 351 359 8 9 6 6 7 9 12 11 7 11 18 19 19 22 26 33 49 61 70 79 85 89 93 96 98 100 102 102 103 102 97 92 92 92 96 103 107 103 99 97 96 98 108 114 108 98 97 102 93 75 78 101 112 105 103 100 78
337 341 339 338 338 335 333 335 337 338 339 340 338 334 330 328 330 338 343 341 341 346 349 348 347 347 349 356 1 3 4 6 7 10 16 16 11 10 11 16 33 42 32 27 42 59 72 83 89 89 91 92 90 88 89 91 99 103 104 106 108 106 107 113 113 111 115 120 115 108 116 124 115 103 107 117 112 102 92 59 41 54 74 83 66
342 346 339 336 336 335 333 332 330 328 327 329 334 337 335 332 335 341 343 341 342 345 347 348 345 343 345 351 356 359 3 6 7 10 14 16 14 8 2 10 46 52 40 33 41 50 64 86 98 97 97 97 94 92 90 85 77 80 90 99 99 98 101 90 59 78 107 104 43 71 141 152 127 87 79 94 105 103 96 79 57 61 80 84 74
342 341 337 337 335 331 329 329 329 329 325 323 329 337 339 337 339 340 340 341 341 338 337 341 343 342 343 351 357 0 1 4 9 11 7 5 9 9 5 9 36 39 37 44 49 45 46 64 84 90 91 92 93 94 96 95 84 76 83 80 67 74 90 89 42 57 73 7 360 10 84 132 111 81 81 85 79 74 80 78 59 48 81 99 100
340 338 338 338 331 327 329 331 330 326 320 319 328 336 335 334 337 337 336 339 340 333 332 339 346 347 350 355 358 359 360 4 13 15 5 354 351 0 11 30 40 29 26 36 48 50 47 46 51 64 69 72 78 78 81 96 102 89 101 118 106 104 113 103 66 46 20 6 11 12 18 58 105 126 120 78 60 82 128 132 103 62 39 83 105
335 333 335 335 329 329 332 332 331 330 325 325 330 331 326 329 336 336 335 339 342 337 336 343 346 347 353 357 357 358 1 4 11 15 9 1 353 350 5 40 63 33 23 19 24 41 49 36 27 28 20 6 2 358 2 38 75 92 127 151 164 175 164 126 92 68 28 44 39 23 10 17 49 76 78 44 12 9 18 85 110 89 37 29 49
331 332 332 328 326 330 333 332 335 337 334 334 336 333 327 330 337 337 335 339 343 340 341 342 342 344 352 356 357 1 5 6 11 15 12 6 4 1 351 311 287 353 4 359 347 342 350 353 356 5 5 354 332 326 345 7 33 62 112 157 198 229 225 199 178 163 136 96 52 35 38 34 27 40 73 85 21 360 1 9 16 354 19 49 357
329 325 320 318 322 330 334 334 334 336 338 342 341 334 329 333 338 337 335 336 338 341 345 343 339 341 350 354 357 3 6 4 2 4 3 3 10 18 21 5 305 322 326 324 326 340 352 357 5 15 17 13 32 48 45 311 266 279 289 281 258 242 226 215 210 193 169 160 152 8 20 18 352 351 26 65 29 344 316 326 331 304 290 232 190
330 318 311 312 317 323 330 330 329 335 345 348 339 332 334 340 339 334 334 335 336 341 345 343 337 340 352 355 356 1 5 1 357 358 0 3 6 7 6 354 289 286 307 330 347 356 352 343 348 13 20 33 68 77 71 262 262 270 282 279 250 229 222 220 215 206 197 194 193 7 2 354 351 328 315 321 337 310 253 266 295 290 285 274 169
Height
821 820 819 818 816 813 812 810 808 807 805 803 801 798 796 794 792 790 788 787 785 784 782 779 778 777 776 776 776 776 776 776 776 775 775 776 777 779 780 779 780 781 782 783 784 786 788 790 793 795 797 797 798 799 799 800 801 801 802 803 803 806 809 810 812 812 811 811 813 815 818 820 822 824 826 826 828 831 833 834 835 836 838 839 841
821 820 819 818 816 814 812 810 808 807 805 803 801 799 797 794 792 790 787 785 784 782 780 778 777 776 775 775 774 775 775 775 774 774 774 774 775 776 776 776 777 778 779 780 782 784 786 787 789 791 793 794 795 796 796 797 798 799 800 801 801 803 806 807 808 808 808 810 812 813 815 817 819 822 823 825 827 829 831 832 833 835 837 838 838
822 821 820 818 816 814 812 810 808 807 805 803 801 799 797 794 792 790 787 785 783 781 779 778 777 775 773 772 772 773 773 773 772 772 772 772 772 773 773 773 774 775 776 777 779 781 782 784 786 788 790 792 793 794 794 794 795 797 798 798 799 801 803 804 804 805 806 808 810 811 812 814 816 819 821 823 825 827 829 830 832 833 835 836 837
823 821 820 818 817 815 813 811 809 807 805 804 801 799 797 795 792 790 787 785 783 781 779 777 776 774 772 770 770 771 771 771 772 771 770 770 770 771 770 770 772 773 774 775 777 778 779 780 782 784 787 791 792 792 792 792 793 794 795 796 797 800 801 802 802 804 805 806 807 808 810 811 814 817 819 821 823 826 827 828 830 831 833 834 835
824 822 820 819 817 816 814 812 810 808 806 804 802 800 797 795 792 790 787 785 782 781 779 777 775 773 772 771 771 770 769 771 772 772 770 769 769 769 768 768 769 770 772 773 774 775 776 776 778 780 783 787 788 789 789 789 790 792 792 794 796 798 799 799 800 802 803 804 805 806 807 809 811 814 816 818 820 823 825 826 828 829 830 832 834
825 823 821 820 819 817 815 813 812 810 807 805 803 800 798 795 793 790 787 785 782 780 778 777 775 774 772 772 771 769 767 768 770 770 769 768 767 767 766 765 766 767 769 771 772 773 773 774 775 777 779 781 784 785 786 787 788 789 790 792 795 795 795 797 798 799 802 803 803 804 805 806 809 811 814 815 817 820 822 824 825 827 828 830 832
826 824 823 821 820 819 817 815 813 811 809 806 804 801 799 796 794 791 788 786 783 781 779 777 775 773 772 771 771 769 766 766 766 766 766 767 766 765 764 763 763 764 766 768 770 771 771 772 773 774 776 777 780 783 784 786 787 787 789 791 792 792 792 795 796 797 799 801 801 802 803 805 807 809 811 813 814 817 819 821 822 824 826 828 830
827 826 824 823 822 820 819 817 815 813 811 808 805 803 800 797 795 792 789 786 784 782 780 777 775 773 771 771 771 769 766 764 763 763 763 763 763 762 762 761 760 761 763 765 767 769 769 770 771 772 773 775 777 780 782 784 785 786 787 788 790 791 792 793 796 796 796 798 799 800 801 803 806 808 809 809 811 813 816 819 820 821 824 826 828
829 827 826 825 824 822 821 819 817 814 812 809 807 804 801 799 796 793 790 788 785 783 780 778 776 773 771 770 769 767 765 762 762 762 761 760 759 760 760 759 759 760 760 762 764 766 766 767 769 770 771 773 774 776 779 781 781 784 786 787 788 790 791 793 797 798 796 796 799 800 800 801 803 806 806 804 807 810 813 816 818 820 822 824 826
831 829 828 827 826 824 823 821 818 816 813 811 808 806 803 800 797 794 792 789 786 784 781 779 776 774 772 770 768 766 764 762 761 760 759 759 758 758 759 759 759 759 758 760 761 762 764 766 767 769 770 770 771 774 776 778 779 781 784 786 787 788 789 791 795 796 795 797 799 801 801 800 801 803 803 803 806 810 811 814 816 817 819 821 824
832 831 830 829 828 826 824 822 820 817 815 812 810 807 805 802 799 796 793 790 788 785 783 781 778 775 773 770 767 765 763 762 760 758 758 758 757 756 757 758 758 758 758 759 760 760 762 764 766 767 768 769 770 772 774 776 777 779 782 784 784 786 788 790 792 793 794 796 799 800 801 800 800 801 802 804 806 808 809 811 813 814 816 817 819
835 834 832 831 830 828 826 824 822 819 817 814 812 809 807 804 801 798 795 792 789 787 784 782 780 777 774 771 768 765 763 761 758 756 756 756 756 755 755 756 756 757 757 758 758 759 760 762 764 765 766 769 771 771 773 775 776 777 780 782 783 784 786 788 790 791 792 795 796 797 799 800 800 801 802 803 805 806 808 810 811 812 812 813 814
837 836 835 834 832 830 829 826 823 821 818 816 814 811 809 806 803 800 797 794 791 788 786 783 781 778 775 772 768 765 763 760 757 755 754 753 754 754 754 755 756 756 756 756 757 758 759 761 763 764 766 769 770 769 770 772 774 776 778 780 782 783 784 786 788 789 790 792 793 795 797 798 799 800 801 802 803 804 806 807 809 811 811 811 813
839 838 837 836 834 833 831 828 825 823 820 818 815 813 811 808 806 803 800 797 793 790 787 785 782 780 777 773 770 766 764 761 757 755 753 752 752 752 752 754 755 756 756 756 757 758 759 760 761 763 767 769 768 767 768 770 772 774 777 779 781 782 783 785 786 787 788 789 791 793 795 796 797 799 800 801 802 803 804 805 807 809 810 810 812
840 839 839 837 836 834 832 830 828 825 822 820 817 815 813 810 808 805 802 799 796 793 790 787 784 781 778 775 771 768 765 762 758 755 753 751 751 750 750 752 754 754 755 756 757 757 757 759 761 763 766 767 766 765 766 768 770 773 775 777 780 781 782 783 785 786 787 788 789 791 793 795 796 798 800 801 802 803 803 804 805 807 808 810 812
841 840 839 838 837 835 833 831 829 827 824 822 819 817 815 812 810 808 805 802 799 796 792 789 786 783 780 777 773 769 766 762 759 756 753 751 750 749 749 750 751 751 752 753 754 754 755 757 761 762 762 763 763 763 764 767 769 772 774 776 778 779 780 782 784 785 787 788 789 790 791 793 795 796 798 800 802 802 802 804 805 806 807 809 811
842 841 840 839 837 836 835 833 831 828 826 823 821 819 817 815 812 810 807 804 801 798 795 792 789 786 782 779 775 771 767 764 760 757 754 751 749 748 748 748 748 748 748 750 752 752 752 755 758 760 760 759 760 761 763 765 768 771 773 775 777 779 780 782 784 785 787 787 788 789 790 792 794 796 797 799 800 801 802 804 805 806 807 808 809
843 842 841 840 839 838 836 834 832 830 828 825 823 821 819 817 815 812 810 807 804 802 799 795 792 789 785 782 778 774 770 766 762 758 754 752 749 747 747 747 746 745 745 748 749 749 750 753 755 758 759 759 758 760 762 765 767 769 771 773 776 779 780 782 783 785 786 786 787 788 789 791 793 794 796 798 799 801 802 803 804 805 807 807 808
845 844 843 841 840 839 838 836 834 832 830 827 825 823 820 818 816 814 812 810 807 805 802 799 795 792 789 785 781 777 772 768 764 759 755 752 749 747 747 746 745 744 743 745 746 747 748 751 753 755 757 757 757 757 760 763 765 767 769 771 775 778 780 781 782 784 785 786 787 789 790 791 792 793 795 797 798 800 801 802 803 805 806 806 807
846 845 844 842 841 840 839 838 836 833 831 829 826 825 822 820 818 816 814 812 809 807 805 802 799 795 792 789 785 781 776 771 767 762 757 753 750 748 748 747 745 744 744 744 745 747 748 750 751 753 755 756 755 755 758 761 764 767 769 770 774 777 779 781 783 784 785 787 788 790 791 792 793 794 795 797 798 800 800 801 802 804 805 807 808
847 846 845 843 842 841 840 839 837 835 833 830 828 826 824 822 820 817 815 813 811 810 807 805 802 799 795 792 789 786 781 776 771 766 761 756 753 750 749 748 747 746 746 746 747 748 750 750 751 753 754 754 754 754 757 760 763 765 767 770 773 777 779 781 784 785 787 788 790 791 792 792 794 795 796 798 799 800 801 802 803 804 806 808 809
848 847 846 845 844 842 842 841 839 837 835 832 830 828 826 824 822 820 817 815 813 811 810 807 805 802 799 796 792 789 786 782 777 771 766 762 758 755 753 752 751 749 748 748 749 751 752 753 754 755 755 754 753 754 757 760 762 764 767 770 774 777 779 782 785 787 788 789 790 792 793 794 796 797 798 799 800 801 802 803 804 805 807 809 810
849 848 847 846 844 843 843 842 840 839 836 834 832 830 828 826 824 822 820 817 815 813 811 810 808 805 802 799 796 793 790 786 782 778 773 769 765 762 759 756 756 756 751 748 750 753 756 757 757 759 759 756 754 756 758 761 763 765 768 771 775 778 780 783 786 787 789 790 791 793 794 795 797 798 799 800 801 802 803 804 805 806 808 810 812
850 849 847 846 845 844 843 843 842 840 839 837 835 832 830 828 826 825 823 820 818 815 814 812 810 809 807 804 801 798 795 791 787 783 780 776 772 769 767 763 763 763 758 752 752 756 759 760 761 762 762 760 758 758 761 763 765 767 769 773 777 780 782 784 786 788 789 791 793 794 796 797 798 800 802 802 803 804 805 806 807 808 809 811 814
851 850 849 847 846 845 844 843 843 842 840 839 837 835 833 831 829 827 825 823 821 819 817 816 814 812 810 808 805 803 799 796 792 788 785 782 778 776 775 772 770 770 765 760 760 762 763 763 763 763 764 764 763 763 764 767 768 769 772 775 778 781 783 785 787 789 790 792 795 797 799 800 801 802 804 805 805 806 807 808 809 810 811 813 816
851 851 849 848 847 846 844 844 843 842 841 840 839 837 835 834 833 831 829 827 825 823 821 819 817 815 814 812 810 808 804 801 797 793 790 788 785 783 781 778 776 774 772 770 769 768 767 766 765 765 766 768 767 767 768 770 771 772 774 776 778 781 783 785 788 790 793 795 797 800 802 803 803 803 804 805 807 809 810 811 812 814 815 816 818
851 850 850 849 848 846 845 844 843 842 842 841 840 839 837 836 835 834 832 830 828 826 824 822 820 818 817 815 814 811 809 805 802 798 795 792 790 788 786 783 781 779 778 777 776 774 772 771 770 770 771 771 771 771 771 772 774 775 777 778 780 782 784 787 790 793 795 798 800 802 804 805 806 805 805 807 808 811 812 813 815 816 818 819 820
852 851 851 851 849 847 846 845 844 842 841 841 841 841 839 838 837 837 835 833 831 829 827 825 824 822 821 819 817 815 813 810 806 804 801 798 796 793 791 789 787 785 784 783 782 780 778 776 776 776 775 774 775 775 774 774 777 780 781 781 784 787 789 790 793 796 798 800 802 804 806 807 808 808 809 809 811 812 814 815 816 817 818 819 820
854 852 852 852 850 848 847 846 844 843 842 841 842 841 840 839 839 838 837 835 833 831 829 828 826 825 824 823 821 818 816 813 811 809 807 804 802 799 797 795 794 792 790 789 787 785 783 781 781 781 780 780 781 782 780 779 780 783 784 785 788 791 792 794 796 799 802 803 805 806 808 808 809 810 811 812 813 814 815 815 817 818 819 819 820
855 853 852 853 852 850 848 847 846 844 842 841 841 841 841 840 839 839 838 837 834 833 831 830 828 827 825 825 823 821 819 817 815 813 810 808 806 804 802 800 798 797 795 793 791 790 789 788 788 788 787 787 788 788 786 784 784 786 787 789 792 795 797 799 801 803 805 806 807 809 810 810 810 811 812 813 815 815 816 817 818 819 820 820 821
857 855 854 854 854 852 850 848 847 845 844 843 841 840 840 840 840 839 838 838 836 834 833 831 830 828 827 826 825 823 821 819 817 815 813 810 809 807 805 804 802 800 799 797 795 795 795 794 794 793 793 793 793 793 791 790 790 791 793 795 797 799 801 803 805 807 808 808 809 810 811 811 812 813 814 816 817 818 818 819 820 820 821 821 822
858 858 856 855 854 853 851 850 848 847 846 845 843 842 841 840 840 839 839 838 837 836 834 833 832 830 828 827 826 824 822 820 818 816 814 812 811 809 808 806 805 804 803 801 800 799 799 799 798 798 797 797 797 797 796 795 796 797 798 799 801 803 804 806 808 809 810 811 812 813 814 815 816 816 817 818 819 820 821 821 821 822 822 823 823
860 860 858 856 854 853 853 851 850 848 847 846 845 843 841 840 840 839 839 838 837 836 835 834 833 831 830 828 827 825 824 822 820 818 815 814 812 811 810 809 808 806 805 804 804 803 803 802 802 802 801 801 800 800 800 800 801 801 802 803 805 806 808 809 810 811 813 814 815 816 818 819 819 819 820 821 822 822 823 823 824 824 824 824 825
860 860 860 858 856 854 854 853 851 850 849 847 846 844 843 842 841 839 838 838 837 836 835 834 833 832 831 830 828 827 825 823 821 819 817 816 814 813 812 811 810 809 808 807 807 807 806 805 805 805 804 804 804 804 804 805 805 806 806 807 808 810 811 812 813 814 815 816 818 819 820 821 822 821 822 823 824 824 825 825 825 825 826 826 827
860 860 860 859 857 855 855 854 853 852 850 849 847 846 845 844 843 841 839 838 837 836 835 834 834 833 832 831 830 828 827 825 823 821 819 818 816 815 813 812 812 811 810 810 810 810 809 809 808 808 808 808 808 808 809 809 810 810 810 811 812 813 814 815 816 817 818 819 820 821 822 823 823 823 824 824 825 826 826 826 827 827 827 828 828
861 860 860 859 858 856 855 854 854 853 852 850 849 848 846 845 844 842 840 839 838 837 836 835 835 834 833 832 831 829 828 826 825 823 821 820 818 817 816 815 814 813 813 813 813 812 812 812 812 812 812 811 812 812 812 813 813 814 814 815 815 816 816 817 818 819 820 821 822 823 824 825 825 825 826 826 827 827 827 827 828 828 829 829 829
861 861 861 860 859 857 855 854 854 854 852 850 850 849 848 846 844 843 841 840 839 838 837 836 835 835 834 833 832 830 829 827 826 824 823 822 820 819 818 817 816 816 816 815 815 815 815 815 815 815 815 815 815 815 815 816 816 817 817 818 818 819 819 820 821 822 822 823 824 825 826 826 827 827 828 828 828 828 828 829 829 830 830 830 830
862 862 862 861 860 858 856 855 854 853 852 850 850 850 849 847 845 844 843 842 841 840 838 837 836 836 836 835 833 831 830 828 827 826 825 824 822 822 821 820 819 818 818 818 818 817 817 817 817 817 817 817 817 817 818 818 819 820 820 821 821 821 822 823 823 824 825 826 826 827 827 828 828 828 829 829 829 829 830 830 831 831 831 831 831
861 861 861 861 860 859 857 856 855 853 852 851 850 850 849 848 846 845 844 843 842 841 839 838 839 839 838 837 835 833 831 829 828 827 827 826 825 824 823 822 821 820 820 820 820 819 819 819 819 819 820 820 820 820 820 821 821 822 823 823 824 824 825 825 826 826 827 827 828 828 828 829 829 829 829 830 830 831 831 832 832 832 832 833 833
862 861 860 860 860 859 857 856 855 854 853 852 851 849 849 848 847 846 845 844 843 842 841 840 840 840 840 839 837 835 833 831 830 830 829 828 828 827 825 825 824 823 822 822 821 821 821 821 821 822 822 822 822 823 823 823 824 824 825 825 826 826 827 827 827 828 828 829 829 829 830 830 830 830 831 831 831 832 832 832 833 833 833 833 833
862 861 860 860 859 858 857 856 855 854 853 852 851 849 849 849 848 847 845 844 844 843 842 841 840 840 840 839 838 836 835 834 833 832 831 830 830 829 828 827 826 825 824 823 823 823 823 823 824 824 824 824 825 825 825 825 826 826 827 827 827 828 828 829 829 829 830 830 830 830 831 831 831 832 832 832 832 832 832 832 833 833 833 833 833
862 861 861 860 859 858 857 856 855 854 853 852 851 851 850 849 848 847 846 845 844 843 842 841 841 840 840 839 838 837 836 835 834 833 833 832 831 831 830 829 828 827 827 826 825 825 825 825 826 826 826 826 826 826 827 827 827 827 828 828 829 829 830 830 831 831 831 831 832 832 832 832 832 833 833 833 832 832 832 833 833 833 833 834 834
862 861 861 860 859 858 856 856 855 854 853 853 853 852 851 850 848 847 846 845 844 843 842 842 841 841 840 839 838 837 837 836 836 835 834 834 833 832 831 831 830 829 829 828 828 827 827 827 827 828 828 828 828 828 828 828 828 829 829 830 830 831 831 832 832 833 833 833 833 833 833 833 833 833 833 834 833 833 833 834 833 833 834 834 834
861 861 860 859 859 858 856 855 855 854 854 853 853 852 851 849 848 847 846 845 844 843 843 842 842 841 840 839 839 838 837 837 837 836 835 835 834 834 833 832 832 831 831 830 830 829 829 829 829 829 829 829 829 829 829 829 830 830 831 831 832 832 832 832 833 833 834 834 834 834 833 833 834 834 834 834 834 835 835 834 834 834 835 835 836
860 860 860 859 858 858 856 855 854 854 853 852 851 850 850 848 848 847 846 845 844 843 843 842 842 841 840 840 839 838 838 838 838 838 837 836 835 835 834 834 833 832 832 832 832 831 831 831 831 831 831 831 831 831 831 831 831 831 831 832 832 832 833 833 833 833 834 834 834 834 834 834 834 834 835 835 835 835 835 836 836 836 836 837 838
860 860 859 859 859 857 856 855 854 854 853 851 849 848 848 848 847 847 846 845 844 844 843 842 842 841 840 840 839 839 839 839 839 839 838 837 836 835 835 835 834 834 834 834 833 833 832 832 832 832 832 832 832 832 833 833 833 833 833 833 833 833 834 834 834 834 835 835 834 834 834 834 835 835 835 835 836 836 836 837 837 837 837 837 838
860 859 859 859 858 857 856 855 854 853 852 851 849 848 847 846 846 846 846 845 844 843 842 841 841 840 840 839 839 839 839 839 839 839 839 838 837 836 836 835 835 835 835 835 834 834 834 834 834 834 833 833 833 833 833 833 833 833 833 833 833 834 834 835 835 835 836 836 835 835 834 835 835 836 836 836 836 837 837 837 837 837 837 836 837
859 859 859 859 858 857 856 855 854 853 851 850 849 848 847 846 845 846 845 844 843 843 841 840 840 839 839 839 839 839 839 839 839 839 839 839 838 837 836 836 836 836 836 836 835 835 835 835 835 835 834 834 834 834 834 834 833 833 833 833 834 834 835 835 835 836 836 836 836 836 835 835 836 836 836 837 837 836 836 836 836 837 837 837 837
859 859 859 858 858 857 855 854 853 852 851 850 849 848 847 845 845 845 845 844 843 842 841 840 839 839 839 839 839 839 839 840 840 840 840 839 838 837 837 837 837 837 837 836 836 836 835 835 835 835 835 835 835 834 834 834 833 832 832 833 834 835 835 836 836 836 836 836 837 837 837 837 837 837 837 837 838 838 837 837 837 837 838 838 839
858 858 859 858 857 856 855 854 853 852 850 849 849 848 846 845 845 846 845 844 843 842 841 840 839 839 839 839 839 839 839 840 840 840 840 840 839 838 838 837 837 837 837 837 836 836 836 836 836 835 835 835 835 835 835 834 834 833 833 834 834 835 835 836 836 836 837 837 837 837 838 838 838 838 838 838 838 839 839 839 839 839 838 839 839
857 858 858 857 857 856 855 854 853 851 850 850 849 847 846 846 846 846 845 844 843 842 841 841 839 839 839 839 840 840 840 840 840 840 840 840 839 839 838 838 837 837 837 837 837 837 837 837 836 836 836 836 836 836 835 835 834 834 834 834 834 835 835 836 836 837 837 837 837 838 838 838 838 838 838 838 839 839 839 839 840 840 839 838 839